Temperature
21 21 21 21 21 21 19 19 19 18 17 15 15 15 13 11 11 9 6 7 7 8 8 8 8 7 7 7 6 6 5 5 5 5 4 4 4 4 4 4 4 4 4 4 5 5 6 7 7
21 21 21 22 22 21 19 19 18 17 15 14 15 15 13 10 8 7 6 7 7 8 8 8 8 8 7 7 6 5 5 4 4 4 4 4 3 3 3 3 3 3 3 3 3 3 4 5 5
22 21 23 22 21 20 19 18 15 15 14 15 13 13 12 10 8 7 6 7 7 8 8 8 8 8 8 7 6 5 4 4 4 4 4 4 3 3 3 3 3 3 3 2 2 2 2 3 3
21 22 24 22 20 20 19 17 15 14 14 14 13 11 9 9 8 7 7 6 7 7 8 8 8 8 7 7 6 5 5 4 4 4 4 4 4 4 4 4 4 4 4 3 3 2 2 2 2
22 23 23 20 19 19 18 16 16 15 15 14 14 11 8 7 7 7 7 6 7 7 8 8 8 8 7 7 6 6 5 5 5 4 4 4 4 3 3 3 4 4 4 3 3 2 2 2 1
23 24 22 20 18 18 17 17 17 17 15 14 14 11 8 7 6 6 6 6 7 7 7 7 7 7 7 6 6 6 5 5 4 4 4 4 3 3 3 3 3 3 3 3 3 2 2 1 1
23 22 22 19 17 17 17 17 17 16 15 14 14 12 8 7 6 6 6 6 7 7 7 7 7 7 6 5 5 5 4 4 4 4 4 4 4 4 4 4 4 3 3 3 2 2 1 1 1
22 23 22 20 18 18 17 16 16 16 15 14 14 13 9 7 6 6 6 6 6 6 7 7 6 6 6 6 5 4 4 4 4 4 4 4 4 4 4 3 3 3 3 2 2 1 1 1 0
22 22 21 21 20 17 16 15 15 14 13 12 12 12 11 9 7 6 6 6 5 5 6 6 6 6 6 5 5 4 4 4 4 3 3 3 3 3 3 2 2 2 2 2 1 1 1 0 0
21 20 18 18 19 17 15 15 13 13 13 12 11 10 9 8 7 6 6 6 5 5 5 6 6 6 5 5 4 4 3 3 3 2 2 2 2 1 1 1 1 0 0 -0 -0 -0 -0 -0 -1
19 17 17 17 17 16 16 15 13 14 13 13 11 9 8 7 7 6 6 6 5 5 5 5 5 5 5 5 4 3 2 2 1 1 1 1 1 0 -0 -1 -1 -2 -2 -3 -3 -3 -3 -3 -3
17 17 17 15 16 16 16 15 14 14 14 14 13 11 8 7 7 7 7 6 5 4 4 4 4 5 5 4 3 2 1 1 0 0 -0 -0 -1 -1 -2 -2 -3 -4 -5 -5 -6 -6 -6 -6 -6
16 15 14 13 14 15 15 14 14 14 14 13 12 10 9 8 7 7 7 6 5 4 4 4 4 4 4 4 2 1 1 0 -0 -0 -1 -1 -2 -2 -3 -3 -4 -5 -6 -6 -6 -7 -7 -7 -7
16 15 14 14 14 14 14 14 14 14 13 12 11 10 9 8 8 7 7 6 5 4 3 3 3 4 4 3 2 1 0 -0 -0 -1 -1 -2 -2 -3 -3 -4 -5 -6 -7 -7 -7 -8 -8 -8 -8
16 15 15 15 14 14 13 14 14 14 13 11 10 9 8 8 8 8 7 6 5 4 3 3 3 3 3 2 2 1 0 -0 -0 -1 -1 -2 -3 -4 -4 -5 -6 -6 -7 -8 -8 -8 -9 -9 -9
18 17 16 15 15 13 13 14 16 14 12 11 10 9 9 8 8 8 7 6 5 4 3 3 3 3 3 2 1 1 0 0 -0 -1 -2 -3 -3 -4 -5 -6 -6 -7 -8 -8 -9 -9 -9 -9 -9
18 19 19 15 15 14 13 14 15 14 12 11 11 10 9 9 8 8 7 6 5 4 3 3 3 3 3 2 1 0 0 -0 -1 -1 -2 -3 -4 -5 -5 -6 -7 -8 -8 -9 -9 -9 -10 -10 -10
20 21 21 18 15 15 14 14 15 13 12 12 12 11 11 10 9 8 7 6 5 4 3 2 2 2 2 2 1 1 0 -0 -0 -1 -2 -3 -4 -5 -6 -7 -8 -8 -9 -9 -10 -10 -10 -10 -10
20 20 20 19 16 15 15 15 16 14 12 12 12 12 11 11 10 9 8 7 5 4 3 2 2 2 2 2 2 1 1 -0 -1 -2 -3 -4 -5 -6 -7 -8 -8 -9 -9 -9 -10 -10 -10 -10 -10
19 20 20 18 15 15 15 15 17 16 12 12 13 13 13 12 11 10 8 7 5 4 3 2 1 2 2 2 1 1 0 -1 -2 -3 -4 -5 -6 -7 -8 -8 -9 -9 -10 -10 -10 -10 -10 -10 -10
20 20 18 17 18 16 15 16 16 16 16 14 13 13 13 13 12 11 9 7 5 4 3 2 1 2 2 1 1 0 -0 -1 -2 -3 -4 -5 -6 -7 -8 -9 -9 -9 -10 -10 -10 -10 -10 -10 -10
19 17 17 17 16 17 17 16 16 15 14 14 14 13 13 13 13 12 10 8 6 4 3 2 1 2 2 1 1 -0 -1 -1 -2 -3 -4 -5 -6 -7 -8 -9 -9 -10 -10 -10 -10 -10 -10 -10 -10
18 16 16 16 16 16 17 16 18 17 15 14 14 14 14 13 12 11 10 8 6 4 3 2 2 2 1 1 0 -0 -1 -2 -3 -4 -5 -6 -6 -7 -8 -9 -10 -10 -10 -10 -10 -10 -10 -10 -10
16 16 16 15 15 16 18 18 18 17 19 17 16 16 15 14 13 11 10 8 6 4 3 2 2 1 1 1 0 -0 -1 -2 -3 -4 -5 -6 -7 -8 -8 -9 -10 -10 -10 -10 -11 -11 -10 -10 -10
15 16 16 16 15 18 18 17 17 19 19 19 17 16 15 14 12 11 9 7 6 4 3 2 2 1 1 0 -0 -1 -1 -2 -3 -4 -5 -6 -7 -8 -9 -9 -10 -10 -11 -11 -11 -11 -11 -10 -10
18 17 17 17 18 18 17 16 18 18 19 18 17 16 15 13 12 10 9 7 5 4 3 2 2 1 1 0 -0 -1 -2 -3 -3 -4 -5 -6 -7 -8 -9 -9 -10 -11 -11 -11 -11 -11 -11 -11 -11
17 17 17 16 18 17 17 19 20 17 16 16 15 14 14 13 12 10 8 7 5 4 3 2 1 1 1 0 -0 -1 -2 -3 -3 -4 -5 -6 -7 -8 -9 -9 -10 -11 -11 -11 -11 -11 -11 -11 -11
14 15 15 15 16 15 17 19 18 16 16 15 14 15 15 14 12 10 8 6 4 3 2 1 1 1 1 0 -0 -1 -2 -3 -4 -4 -5 -6 -7 -8 -9 -9 -10 -11 -11 -11 -11 -11 -11 -11 -11
14 15 15 16 16 15 15 17 20 18 18 18 16 17 16 14 13 11 8 6 4 2 1 1 1 1 1 0 -1 -1 -2 -3 -4 -5 -6 -6 -7 -8 -8 -9 -10 -11 -11 -11 -12 -11 -11 -11 -11
16 16 16 15 15 15 13 15 19 19 19 18 18 17 16 14 13 11 8 5 3 2 1 1 1 1 0 -0 -1 -1 -2 -3 -4 -5 -6 -6 -7 -7 -8 -9 -10 -10 -11 -11 -12 -12 -11 -11 -11
Wind_Speed
8 11 7 2 3 3 6 7 8 8 5 6 8 7 8 7 7 11 6 7 9 11 14 16 16 17 18 19 20 21 22 23 23 24 25 25 25 25 25 25 26 26 27 27 27 28 29 29 30
9 7 4 4 4 3 6 7 11 8 8 7 5 8 8 8 9 10 7 6 10 12 14 14 15 16 18 19 20 20 21 22 23 23 24 25 25 25 25 25 25 25 26 26 26 26 27 28 28
9 8 4 2 5 5 8 11 14 11 8 6 5 8 6 7 9 6 6 7 12 13 13 13 14 15 17 18 18 19 20 21 22 23 24 24 25 25 25 25 25 26 26 26 26 26 26 26 27
5 4 3 4 9 8 10 14 13 11 5 6 8 8 5 6 6 9 8 9 12 12 12 12 13 14 15 16 18 18 20 21 22 22 24 24 24 25 25 25 26 26 27 27 27 27 27 26 26
4 4 3 6 7 9 12 14 11 10 8 6 8 8 7 7 12 11 9 9 9 10 9 9 11 12 12 14 17 18 19 21 21 22 23 24 24 24 25 25 26 27 27 28 28 28 27 27 27
4 4 3 7 8 8 9 9 7 10 8 6 6 9 7 10 10 10 9 10 10 9 9 8 9 11 11 12 14 16 17 19 20 21 23 24 23 24 25 25 26 27 27 28 28 28 28 28 29
4 4 3 9 8 7 8 6 6 8 7 7 5 8 8 10 10 9 9 10 10 9 8 8 10 10 11 12 12 14 15 17 19 20 23 24 24 25 25 26 27 28 28 29 29 29 29 30 29
5 1 5 7 9 7 9 5 2 4 6 5 2 5 9 13 12 9 8 7 8 8 8 8 10 10 11 11 12 13 15 17 19 20 22 23 23 24 25 26 28 28 29 30 30 29 31 31 29
4 2 4 4 7 8 11 6 4 6 8 3 3 8 11 19 14 9 7 7 7 7 8 9 9 10 11 11 12 13 13 15 17 18 20 21 21 22 22 24 27 27 29 29 29 30 31 30 28
6 3 6 7 6 9 11 7 8 5 7 6 6 10 16 14 12 10 9 9 8 7 6 9 8 8 10 10 11 11 11 13 14 15 17 18 19 20 20 23 25 26 27 27 28 30 28 27 25
7 6 6 7 7 10 10 8 9 7 7 8 12 14 15 12 11 11 9 8 8 8 6 7 5 6 8 9 10 10 10 10 13 13 14 15 16 17 18 19 20 22 23 22 24 23 23 25 25
6 7 7 5 4 8 8 7 7 8 1 4 11 19 17 13 12 11 9 9 9 8 7 5 3 5 6 7 8 9 9 9 11 11 12 13 13 14 16 16 19 19 19 20 20 20 23 24 25
6 6 8 6 3 5 5 5 4 7 6 6 9 16 16 14 12 10 8 9 9 8 7 5 2 4 4 4 6 8 8 8 10 10 10 13 12 12 15 16 17 18 19 18 19 20 20 21 22
8 9 8 7 5 3 3 6 5 8 9 9 11 13 14 13 12 10 8 8 8 8 8 5 3 3 3 4 6 7 7 8 9 9 10 11 12 14 14 15 16 16 18 19 19 19 19 18 18
9 8 6 6 6 4 3 7 10 7 11 10 11 12 13 13 12 10 10 9 8 9 8 6 3 1 2 4 5 7 6 7 7 8 9 10 12 14 14 14 14 16 18 19 18 18 17 15 15
6 5 6 8 7 5 2 7 6 11 11 11 11 12 12 12 11 10 11 10 9 10 8 6 3 0 2 4 6 7 6 6 7 7 8 9 12 14 14 13 13 17 18 17 14 10 6 8 9
7 7 5 7 8 7 6 7 6 11 11 11 11 12 12 12 12 11 11 11 10 10 9 7 5 2 1 4 6 6 6 6 7 7 7 9 11 12 13 13 15 17 16 14 14 8 8 10 10
2 6 3 7 9 8 8 10 7 11 12 11 12 12 12 14 14 12 11 11 11 10 9 7 5 4 1 2 4 5 5 6 7 6 7 9 10 12 13 13 14 16 12 8 7 10 9 9 9
6 6 7 4 7 6 10 11 9 14 12 12 11 12 13 13 13 13 12 12 11 10 9 8 5 3 1 0 2 3 3 4 6 7 7 9 11 12 13 12 13 13 8 7 8 9 10 10 8
6 7 5 5 7 5 8 11 8 10 16 13 12 12 13 13 12 13 13 13 12 11 10 9 7 4 2 1 1 3 4 4 7 7 7 9 11 13 13 12 11 12 8 9 9 9 9 11 9
8 2 4 5 4 8 6 5 5 1 6 11 12 12 11 12 13 13 14 13 12 11 11 9 7 4 3 2 2 3 3 4 3 3 4 9 12 13 13 13 13 12 9 8 9 9 10 12 11
3 6 3 5 6 2 5 4 7 6 7 9 12 12 12 11 10 12 14 14 13 11 10 9 7 5 4 3 2 3 4 4 4 4 4 9 12 13 14 14 13 12 11 8 9 9 9 11 13
3 2 4 6 5 5 6 5 5 7 8 11 13 13 13 11 11 11 13 14 13 11 11 9 8 7 5 4 3 4 5 4 4 5 6 6 9 12 14 14 13 12 11 10 9 9 10 9 11
5 5 6 4 3 5 6 3 4 7 7 8 10 10 10 10 10 9 11 12 11 11 10 9 8 7 6 5 5 5 5 5 6 7 6 5 4 8 12 14 13 13 13 10 9 9 11 10 10
5 4 3 4 4 4 4 4 7 8 8 7 8 10 10 9 9 10 12 13 13 13 11 9 9 8 8 6 5 5 5 5 6 6 6 6 5 5 6 12 12 12 13 13 12 8 10 11 10
3 3 4 3 3 1 4 6 7 9 9 7 5 5 7 9 9 11 12 13 13 13 12 10 10 8 7 6 5 4 5 4 4 5 6 6 6 5 10 12 13 14 14 14 12 7 9 10 10
4 3 2 3 5 4 6 7 5 7 7 8 9 9 10 10 10 11 11 12 13 13 12 11 10 8 7 6 6 6 4 4 5 6 5 5 5 9 12 13 12 13 12 12 10 7 10 10 9
4 6 2 3 3 5 7 7 6 9 10 12 11 12 12 11 11 12 12 12 12 12 11 10 9 8 7 6 6 5 5 6 5 5 7 7 7 9 10 9 9 10 10 10 7 8 9 11 10
6 4 5 4 3 3 5 7 4 11 10 9 10 10 10 12 12 12 12 12 11 11 11 10 9 8 7 7 6 5 5 5 5 6 7 6 6 8 7 8 8 8 8 7 8 9 11 11 11
4 7 7 5 5 5 4 9 7 7 7 7 7 6 7 9 11 12 12 12 11 11 11 10 10 9 8 7 5 5 5 6 6 7 6 6 6 8 9 9 8 9 10 9 10 12 12 12 12
Wind_Direction
237 234 233 255 247 101 88 94 112 119 84 58 48 60 70 44 44 116 111 67 60 49 41 25 20 23 25 25 24 23 22 20 19 17 15 14 13 12 11 10 8 6 4 3 1 359 357 355 353
261 247 253 237 255 132 108 127 116 90 104 111 82 87 87 79 87 105 105 82 72 60 51 29 26 28 28 26 24 22 20 18 16 14 12 10 9 8 7 7 6 4 1 360 358 356 353 351 349
270 262 251 250 32 52 122 113 103 102 121 117 74 39 67 104 104 94 106 104 84 71 64 38 32 31 30 27 24 21 18 16 13 11 9 7 6 5 4 4 3 1 358 357 355 353 350 348 346
280 251 235 55 70 53 109 114 123 125 115 101 113 93 68 55 84 109 118 98 84 76 71 51 36 33 30 26 23 19 16 13 10 9 8 5 4 3 2 2 0 358 355 354 352 350 347 345 343
239 257 170 92 84 85 97 118 140 140 133 142 130 112 102 89 102 113 110 91 83 81 76 63 41 33 27 23 20 16 13 10 8 7 5 3 2 1 360 359 358 355 352 351 349 347 344 343 340
262 272 238 121 114 104 110 135 161 127 121 132 130 116 123 134 129 123 123 107 91 83 69 58 40 29 21 19 17 11 8 6 4 4 4 2 0 359 358 358 355 352 350 349 347 344 343 341 338
293 302 39 103 128 145 140 153 161 127 139 156 153 118 132 154 136 136 132 117 101 86 71 53 47 30 14 12 13 4 4 4 2 4 3 1 360 358 356 356 352 350 349 347 345 343 342 339 337
315 300 99 121 150 145 132 153 103 125 120 97 158 152 159 159 141 146 131 123 121 108 85 52 44 31 15 3 1 0 2 3 2 3 1 1 359 356 353 352 349 348 347 345 343 343 341 338 338
287 228 107 100 142 131 138 150 96 29 95 113 57 38 122 136 144 151 156 169 152 116 96 72 43 26 13 1 1 357 358 0 0 360 358 358 355 351 348 346 345 345 344 342 341 341 340 340 337
344 51 67 29 42 131 154 156 140 164 150 164 130 93 115 136 153 173 189 175 141 109 90 77 53 27 17 4 353 352 353 357 353 358 356 354 353 347 346 343 341 341 339 339 338 337 339 336 331
35 69 90 46 42 121 151 143 151 187 192 187 171 150 147 160 173 191 193 151 120 109 94 88 73 42 26 0 351 344 344 354 347 351 351 353 350 343 341 340 335 335 334 334 332 333 333 329 327
78 70 86 78 48 118 141 138 171 222 86 61 155 155 161 177 189 195 185 150 128 118 110 93 80 66 38 0 337 332 343 350 338 343 348 354 345 341 341 335 332 332 330 331 333 332 326 324 323
91 99 85 96 87 102 127 168 216 226 158 104 125 149 168 186 193 195 177 142 141 135 125 116 110 75 34 342 327 336 337 338 329 338 350 352 347 342 337 333 330 329 330 333 332 325 322 323 320
112 118 120 128 112 118 197 211 216 237 152 147 154 165 180 193 196 184 164 157 161 143 133 115 86 60 7 350 342 325 327 324 331 337 345 348 352 343 336 331 326 326 331 330 324 321 320 317 315
134 130 141 161 169 154 244 244 214 197 146 169 174 181 191 200 199 187 170 177 169 144 134 128 146 63 1 353 329 311 306 320 325 333 342 348 353 341 336 325 322 324 326 323 320 316 313 315 318
181 181 187 177 178 129 218 275 178 150 158 186 188 191 198 205 201 189 176 174 160 143 142 137 166 41 356 336 308 295 305 321 320 334 339 344 343 335 332 323 319 319 323 319 314 309 315 314 310
206 231 159 159 188 162 213 266 143 146 175 196 197 202 201 206 206 193 183 170 159 154 146 150 151 193 294 307 299 309 318 325 328 331 330 331 333 331 329 320 312 319 318 312 313 322 313 308 308
2 336 357 154 183 198 223 251 206 175 191 206 204 208 208 209 206 196 185 168 159 149 141 153 163 180 204 300 321 319 321 325 317 311 313 323 328 326 323 311 312 316 311 308 308 308 305 304 305
341 317 304 96 148 209 248 261 248 182 193 211 215 211 215 214 202 189 180 164 155 151 155 163 169 168 156 164 329 312 312 304 300 297 306 321 322 319 312 305 307 308 304 300 301 306 307 306 303
279 285 323 96 161 213 276 276 261 183 195 205 216 221 216 212 199 186 175 167 165 166 166 166 168 161 167 152 255 256 268 269 280 285 314 319 313 309 308 305 302 302 300 300 301 305 305 307 310
268 296 5 337 287 217 264 268 169 129 187 195 212 227 231 213 201 186 177 172 170 172 167 167 148 167 189 177 252 283 289 291 303 327 319 308 306 306 305 303 300 300 299 297 299 300 304 308 306
328 58 354 300 296 239 191 279 196 179 204 213 218 223 229 229 207 186 177 175 174 166 146 144 151 183 191 193 238 281 289 291 296 295 284 297 306 309 308 305 303 302 299 294 300 311 302 304 307
347 51 285 280 270 277 200 249 191 180 206 213 213 216 219 217 206 189 175 172 166 149 143 148 159 190 190 196 233 255 271 281 290 293 292 298 305 306 305 305 307 303 301 297 299 304 302 302 301
310 273 237 263 263 252 170 219 231 194 186 180 185 193 198 196 189 176 158 152 145 140 142 152 173 194 189 204 229 243 266 284 295 298 300 300 294 298 302 308 309 305 300 298 301 302 303 303 301
227 270 241 223 221 211 140 214 248 172 157 175 186 188 185 179 173 166 156 155 151 150 155 164 184 199 193 203 225 242 259 270 277 287 293 296 295 295 294 308 303 300 298 301 306 305 304 302 304
257 276 307 284 285 345 191 228 244 155 152 157 171 181 178 180 179 174 168 163 160 161 165 173 190 198 190 200 224 238 253 258 263 275 282 286 287 284 293 300 299 299 303 308 308 304 303 305 305
277 228 24 308 292 274 253 231 194 143 169 193 207 210 211 201 186 175 167 166 166 168 172 179 187 191 190 199 218 235 250 267 269 275 278 275 276 293 300 301 297 299 302 304 306 301 303 301 299
266 319 265 239 259 272 279 257 223 190 218 214 214 218 217 200 184 175 174 173 170 169 171 176 182 189 187 195 218 230 236 252 260 272 276 278 284 294 296 294 297 298 300 301 299 298 298 299 297
186 222 232 261 271 236 275 266 223 176 183 189 203 210 205 193 184 179 177 172 165 162 165 174 183 186 188 199 211 231 247 259 265 269 272 278 286 293 293 295 297 298 298 297 296 293 295 294 295
214 218 196 210 231 213 251 270 251 184 166 178 208 207 188 179 175 173 170 167 166 167 172 181 186 187 191 193 200 229 247 258 263 269 278 287 289 292 293 296 299 302 302 294 291 291 293 287 286
Height
1545 1545 1547 1549 1550 1555 1569 1572 1573 1580 1584 1589 1589 1590 1594 1600 1602 1614 1614 1612 1612 1611 1609 1607 1605 1603 1601 1599 1596 1594 1592 1590 1587 1585 1582 1580 1577 1575 1572 1570 1567 1565 1563 1561 1559 1557 1555 1553 1551
1545 1546 1549 1549 1551 1562 1575 1573 1576 1580 1587 1590 1591 1593 1596 1603 1606 1609 1610 1610 1610 1609 1608 1606 1604 1602 1600 1598 1596 1594 1591 1589 1586 1584 1581 1579 1576 1574 1571 1568 1566 1563 1561 1559 1557 1554 1552 1550 1548
1546 1547 1549 1546 1555 1562 1572 1573 1581 1586 1588 1590 1593 1595 1599 1605 1607 1607 1608 1609 1609 1608 1607 1606 1604 1602 1599 1597 1595 1592 1590 1588 1585 1583 1580 1578 1575 1573 1570 1567 1564 1561 1559 1557 1554 1552 1549 1547 1545
1547 1548 1547 1551 1564 1564 1567 1575 1582 1586 1589 1591 1593 1598 1602 1605 1605 1605 1607 1608 1608 1607 1606 1605 1603 1601 1598 1596 1594 1591 1589 1587 1584 1582 1579 1577 1574 1571 1569 1566 1563 1560 1557 1555 1552 1549 1547 1544 1542
1548 1547 1548 1561 1568 1569 1572 1577 1582 1585 1588 1591 1593 1597 1602 1605 1603 1604 1606 1607 1606 1606 1605 1603 1602 1600 1598 1596 1593 1591 1588 1586 1583 1581 1578 1575 1573 1570 1567 1564 1561 1558 1555 1553 1550 1547 1544 1541 1538
1549 1545 1551 1564 1571 1573 1577 1580 1581 1583 1588 1591 1593 1597 1602 1603 1603 1604 1604 1605 1605 1604 1603 1602 1601 1599 1597 1595 1592 1590 1587 1585 1582 1580 1577 1574 1571 1568 1566 1562 1559 1556 1553 1550 1547 1544 1541 1538 1535
1549 1547 1550 1562 1573 1575 1578 1580 1582 1584 1588 1591 1592 1596 1600 1602 1602 1602 1603 1604 1603 1603 1602 1601 1600 1598 1596 1593 1591 1588 1586 1583 1581 1579 1576 1573 1570 1567 1564 1561 1558 1554 1551 1548 1544 1541 1538 1535 1531
1548 1548 1553 1561 1570 1574 1578 1581 1582 1584 1587 1590 1592 1594 1595 1599 1599 1601 1602 1603 1602 1601 1600 1600 1598 1596 1594 1592 1590 1587 1585 1583 1580 1578 1575 1572 1569 1566 1563 1560 1556 1553 1549 1545 1542 1538 1535 1531 1527
1549 1551 1557 1560 1564 1572 1577 1581 1583 1585 1587 1590 1592 1591 1590 1593 1596 1599 1601 1601 1601 1600 1598 1598 1596 1595 1593 1591 1589 1586 1584 1581 1579 1576 1573 1570 1567 1564 1560 1557 1554 1550 1546 1543 1539 1535 1531 1527 1523
1551 1554 1563 1564 1563 1569 1576 1579 1583 1585 1587 1590 1592 1592 1592 1592 1595 1597 1598 1600 1599 1598 1596 1595 1594 1593 1591 1589 1586 1584 1581 1579 1576 1573 1570 1567 1564 1560 1557 1553 1550 1546 1542 1538 1535 1531 1527 1522 1518
1556 1563 1566 1567 1567 1570 1575 1578 1582 1583 1585 1586 1587 1589 1590 1591 1593 1595 1597 1598 1596 1595 1594 1593 1592 1591 1589 1587 1584 1581 1578 1576 1573 1570 1567 1563 1560 1556 1552 1548 1544 1540 1537 1533 1529 1525 1522 1518 1514
1562 1566 1567 1570 1571 1573 1576 1578 1581 1581 1582 1582 1582 1584 1586 1589 1591 1593 1595 1595 1593 1593 1592 1591 1589 1588 1586 1584 1581 1578 1576 1573 1570 1566 1563 1559 1555 1551 1547 1543 1539 1535 1532 1528 1524 1521 1517 1513 1510
1565 1570 1571 1573 1573 1575 1577 1578 1579 1578 1580 1580 1582 1582 1583 1586 1588 1591 1592 1592 1591 1590 1589 1588 1587 1585 1583 1581 1578 1575 1573 1570 1566 1563 1560 1556 1552 1547 1543 1539 1536 1532 1528 1525 1521 1516 1513 1509 1505
1567 1570 1573 1574 1575 1576 1577 1577 1578 1575 1576 1577 1579 1580 1581 1583 1586 1588 1589 1589 1589 1587 1586 1585 1584 1583 1581 1578 1575 1572 1569 1566 1564 1560 1557 1553 1549 1545 1540 1536 1532 1529 1525 1521 1517 1513 1509 1505 1502
1568 1571 1574 1574 1575 1576 1577 1575 1571 1571 1573 1575 1577 1578 1580 1581 1583 1585 1584 1585 1586 1584 1582 1581 1581 1580 1578 1575 1572 1569 1566 1564 1561 1558 1554 1550 1546 1542 1537 1533 1529 1526 1522 1518 1514 1510 1506 1502 1498
1566 1568 1572 1572 1572 1575 1579 1573 1563 1567 1570 1573 1575 1576 1577 1579 1580 1581 1582 1581 1582 1580 1578 1578 1578 1577 1575 1572 1569 1566 1563 1561 1558 1555 1552 1548 1543 1539 1534 1530 1527 1523 1519 1515 1511 1507 1503 1498 1494
1565 1563 1561 1571 1570 1572 1575 1570 1565 1565 1567 1570 1572 1573 1574 1575 1576 1577 1577 1577 1577 1576 1574 1574 1574 1573 1571 1568 1565 1563 1561 1558 1555 1552 1549 1545 1540 1536 1532 1528 1524 1520 1516 1512 1508 1504 1500 1495 1490
1560 1555 1553 1561 1567 1569 1571 1566 1562 1562 1564 1566 1567 1569 1570 1570 1570 1572 1573 1572 1572 1571 1570 1570 1570 1569 1567 1565 1563 1560 1558 1555 1553 1549 1545 1542 1538 1533 1529 1524 1521 1517 1513 1509 1505 1501 1496 1492 1487
1557 1558 1557 1558 1563 1566 1565 1561 1556 1557 1560 1562 1563 1563 1564 1564 1566 1567 1568 1567 1566 1566 1566 1566 1566 1565 1563 1561 1559 1557 1555 1552 1549 1546 1543 1539 1535 1530 1526 1521 1517 1514 1510 1506 1502 1498 1493 1487 1483
1558 1559 1556 1559 1563 1563 1561 1557 1550 1549 1553 1555 1557 1558 1558 1559 1561 1561 1562 1561 1560 1560 1561 1561 1561 1561 1559 1558 1556 1553 1551 1548 1546 1543 1540 1536 1531 1527 1523 1519 1514 1510 1507 1502 1499 1495 1489 1484 1480
1556 1557 1560 1562 1558 1557 1562 1553 1550 1549 1549 1551 1551 1552 1553 1553 1554 1555 1555 1555 1555 1556 1556 1556 1556 1557 1556 1554 1552 1549 1547 1545 1543 1540 1536 1532 1528 1524 1520 1516 1511 1507 1504 1499 1495 1492 1487 1481 1475
1558 1560 1561 1562 1565 1558 1558 1564 1551 1548 1549 1547 1547 1547 1546 1548 1549 1550 1549 1549 1549 1551 1551 1551 1552 1553 1552 1550 1548 1546 1544 1541 1539 1535 1532 1528 1524 1520 1516 1512 1508 1504 1500 1496 1492 1488 1484 1479 1472
1559 1560 1561 1561 1561 1560 1554 1560 1547 1542 1545 1542 1540 1540 1541 1542 1543 1544 1544 1544 1545 1545 1545 1547 1548 1549 1548 1546 1544 1542 1540 1538 1535 1531 1528 1524 1520 1516 1512 1509 1505 1500 1496 1492 1488 1484 1480 1475 1470
1560 1560 1560 1561 1562 1563 1547 1553 1545 1539 1533 1532 1534 1535 1536 1537 1538 1539 1540 1540 1540 1539 1540 1542 1544 1544 1543 1542 1540 1538 1536 1534 1531 1527 1524 1520 1516 1512 1508 1505 1500 1496 1492 1488 1484 1480 1475 1471 1466
1561 1564 1565 1566 1570 1554 1544 1549 1542 1526 1524 1526 1529 1530 1531 1532 1533 1534 1534 1534 1533 1533 1535 1537 1539 1539 1539 1538 1536 1535 1533 1530 1527 1523 1519 1515 1511 1508 1504 1500 1496 1492 1488 1484 1480 1475 1471 1466 1462
1554 1559 1567 1568 1559 1550 1548 1549 1530 1518 1520 1522 1525 1526 1527 1527 1527 1528 1528 1528 1527 1528 1530 1532 1534 1535 1534 1533 1532 1531 1529 1526 1523 1520 1516 1512 1508 1504 1500 1496 1492 1488 1484 1480 1475 1471 1466 1462 1457
1555 1554 1555 1561 1552 1558 1547 1530 1519 1518 1519 1520 1521 1522 1522 1522 1522 1522 1522 1522 1522 1523 1525 1527 1529 1530 1529 1529 1528 1526 1525 1522 1519 1516 1512 1508 1504 1500 1496 1492 1487 1483 1479 1475 1471 1466 1462 1457 1453
1559 1557 1559 1561 1565 1566 1545 1531 1526 1522 1518 1516 1516 1516 1515 1516 1516 1516 1516 1517 1517 1518 1520 1523 1524 1525 1525 1524 1524 1522 1521 1518 1515 1512 1508 1504 1500 1496 1492 1487 1483 1479 1475 1470 1466 1461 1457 1453 1448
1559 1558 1556 1555 1554 1565 1560 1539 1505 1507 1506 1508 1509 1509 1510 1510 1510 1510 1511 1511 1513 1513 1515 1517 1519 1520 1520 1520 1519 1518 1516 1514 1511 1507 1504 1500 1496 1492 1488 1483 1479 1474 1470 1465 1461 1456 1452 1447 1442
1546 1546 1550 1559 1554 1553 1558 1539 1500 1499 1500 1502 1504 1505 1505 1505 1505 1505 1506 1506 1507 1508 1509 1512 1514 1515 1515 1515 1514 1513 1512 1510 1507 1503 1500 1496 1492 1488 1484 1479 1475 1470 1465 1460 1456 1451 1447 1442 1437